Starlink 30943

operational
NORAD ID: 58449 Int'l Des: 2023-183 Owner: SPXS Country: US Constellation: starlink
LEOCIRCULAR

Über Starlink 30943

Beschreibung wird geladen...

Live-Position

3D-Globus wird geladen...

Nächste Überflüge

Höhenverlauf

Altitude vs Time

uPlot chart will show altitude changes over time

Zweizeiliger Elementsatz

1 58449U 23183N 25305.14610548 .00000578 00000-0 57838-4 0 9996
2 58449 43.0013 356.1221 0000245 338.7861 21.2971 15.02533104107677
Epoch: 1. Nov. 2025 • Age: 17 hours

Aktueller Status

Höhe 566.9 km
Geschwindigkeit 7.58 km/s
Subsatellitenpunkt -29.90°S, 39.76°W
Startdatum 28. Nov. 2023
Alter 1.9 years
Typ internet

Technische Details

Klassifizierung Payload
Masse 730.00 kg
Trockenmasse 700.00 kg
Gesamtmasse 730.00 kg
Länge 0.30 m
Durchmesser 4.10 m
Spannweite 29.00 m
Form Box + pan
Hersteller SPXS
Bus-Typ Starlink V2M
Phasenstatus In Orbit
Besitzer/Staat SPXS/US

Große Konstellationen

Loading constellations...